Zurück zum Katalog

STARLINK-37158

AktivKommunikationVLEO
NORAD 68343·PAYLOAD·🇺🇸 United States

Gestartet Mar 22, 2026 von Cape Canaveral Space Force Station

Loading…

Nächste Überflüge (nächste 24 Stunden)

TLE

AktuellSource: CelesTrak SupGP

Epoche: Sep 14, 2026, 22:26 UTC

1 68343C 26059Y   26257.93520833 -.00028175  00000+0 -83209-3 0  2577
2 68343  53.1571 182.0828 0001252  97.7358 152.8870 15.34418294    19

Verfolge STARLINK-37158 in Echtzeit mit AllMySat

Download on the App Store